Location: Beadle
(51.4667°N, 109.0000°W)
Time: 04:09:51
(UTC+00:00)

Altair - Pass Details

Date: 30 May 2022
Orbit: 1501 x 1682 km, 47.2° (Epoch: 30 June)

Event Time Altitude Azimuth Distance (km) Brightness Sun altitude
Rises 01:30:29 0° 264° (W) 4,871 11.4 14.3°
Reaches altitude 10° 01:33:36 10° 262° (W) 3,903 11.0 13.8°
Maximum altitude 01:43:34 71° 181° (S) 1,760 8.0 12.4°
Drops below altitude 10° 01:53:40 10° 101° (E) 3,941 9.1 10.9°
Sets 01:56:49 0° 99° (E) 4,921 9.5 10.4°
